RH
54 55 61 65 70 75 62 48 44 43 49 66 79 85 90 86 85 95 95 83 65 44 30 20 11 8 7 5 4 3 2 2 2 2 3 2 3 2 2 2 2 2 3 3 3 4 4 4 5 5 5 6 6 6 6 6 6 6 5 6 5 5 5 5 5 5 5 5 6 6 6 6 6 6 6 6 6 6 6 6 6 6 5 5 5 7 8 9
52 56 61 63 69 74 69 61 57 56 65 79 86 88 90 89 93 98 89 72 51 32 21 11 7 7 6 4 3 3 2 2 3 3 3 3 3 2 2 3 2 3 3 3 4 4 4 4 5 5 5 6 6 7 6 6 6 6 6 6 6 5 6 6 6 6 6 6 6 6 6 6 6 6 6 6 6 6 6 6 6 6 6 6 6 7 8 9
45 53 57 62 70 76 77 77 75 76 81 85 88 91 94 96 96 92 77 56 36 23 14 8 8 7 5 3 2 3 2 2 3 3 3 3 2 2 3 3 3 3 3 4 4 4 4 5 5 5 6 6 7 7 6 6 6 6 6 6 6 6 6 7 6 7 7 6 7 7 7 7 7 7 7 7 7 7 7 6 6 6 6 6 7 8 8 9
37 45 54 64 73 80 84 87 87 88 89 87 89 95 99 97 90 80 62 38 22 14 10 9 7 5 3 3 3 2 2 2 3 3 3 2 2 3 3 3 3 3 4 4 4 4 5 5 6 6 6 7 7 7 6 6 6 6 7 6 7 7 7 7 8 8 8 8 8 8 8 8 8 8 8 8 8 7 7 7 7 7 7 7 8 8 9 9
37 48 60 70 77 86 94 95 94 95 97 95 96 99 98 93 83 66 48 30 18 13 10 9 5 4 3 2 2 2 3 3 3 3 2 2 3 3 3 3 4 4 4 4 5 5 5 5 6 6 7 7 7 7 7 6 7 7 7 7 7 7 7 8 8 9 9 8 8 9 9 9 9 9 9 9 9 9 9 8 8 8 9 9 9 9 10 11
44 59 69 74 83 94 99 99 99 98 99 100 100 98 91 85 68 43 30 23 17 14 10 6 3 3 3 2 2 3 3 3 3 3 2 3 3 3 4 3 4 4 4 5 5 5 6 6 6 7 7 7 7 7 7 7 8 8 8 8 7 7 7 8 9 9 9 8 8 9 9 10 10 10 11 11 11 11 10 10 10 10 11 10 10 11 11 12
53 68 73 77 89 97 98 100 98 94 95 98 98 93 83 74 51 23 14 14 12 10 6 3 3 3 2 2 3 3 3 3 3 3 3 3 3 4 4 4 4 4 5 5 5 6 6 6 7 7 7 7 7 7 8 8 8 8 8 8 7 7 6 6 8 9 9 8 8 9 9 10 11 11 11 12 12 12 13 13 13 13 13 13 13 13 13 14
60 72 74 80 92 97 98 101 97 91 93 94 92 86 74 60 39 19 12 11 9 6 3 3 3 2 2 3 3 3 3 3 3 3 3 4 4 4 4 4 5 4 5 5 5 6 6 7 7 7 7 7 8 8 8 9 9 9 8 7 6 6 5 5 7 9 9 8 8 8 9 9 11 11 12 13 13 14 14 15 15 15 15 16 16 16 16 17
65 73 76 82 92 96 96 100 97 93 93 91 87 77 63 49 33 21 16 12 8 5 4 4 3 2 3 3 3 3 3 3 3 3 4 4 4 4 5 5 5 5 5 5 6 7 7 8 7 8 8 8 8 8 9 8 8 8 8 7 6 5 5 5 6 7 8 8 7 8 7 8 9 10 11 13 13 14 15 15 16 16 17 18 18 19 19 19
71 77 79 86 94 95 94 97 95 92 90 86 77 58 40 35 30 22 17 11 6 5 4 3 3 3 3 3 3 3 3 4 4 4 4 5 5 5 5 5 5 6 5 6 7 7 8 8 8 8 8 8 9 9 9 8 8 7 7 7 6 6 6 6 5 6 7 7 7 6 5 6 9 10 11 13 13 14 15 15 17 17 18 19 20 21 21 22
79 84 88 94 98 97 94 93 91 90 87 78 64 43 24 19 19 16 11 6 4 4 3 2 3 3 3 3 3 3 3 4 4 5 5 5 6 6 6 6 6 6 6 7 8 8 8 8 8 9 9 9 9 9 8 7 7 5 4 6 6 6 6 5 4 4 6 6 5 5 5 6 10 11 11 12 13 13 14 16 17 18 20 21 23 24 24 25
89 91 94 96 97 100 97 92 90 89 83 66 46 32 23 17 13 9 5 4 3 3 2 3 3 3 3 3 3 4 4 5 5 6 6 6 6 6 6 6 6 7 8 8 8 8 8 9 9 9 9 9 8 8 7 6 5 4 3 5 5 5 5 4 4 3 4 5 5 5 6 6 9 11 10 11 12 13 14 16 18 20 22 24 25 26 26 25
92 94 96 96 97 99 95 92 90 84 73 50 27 21 20 16 10 5 3 4 3 2 3 3 3 3 3 3 3 4 5 5 6 6 6 6 6 7 7 7 8 8 9 9 9 9 9 10 10 10 9 8 8 7 6 5 4 3 3 4 4 4 4 4 4 3 3 4 5 5 7 7 7 9 8 10 12 13 15 17 20 23 25 26 26 25 26 25
93 95 98 97 99 98 94 95 87 66 48 32 20 17 14 9 5 3 3 3 2 3 3 3 3 4 3 4 4 4 6 6 7 7 7 7 7 7 7 8 9 9 9 9 9 10 10 10 11 10 9 7 7 6 4 4 3 3 3 3 3 4 4 3 3 3 3 4 5 5 6 6 5 7 8 9 12 14 16 19 22 25 26 25 24 24 25 24
97 99 99 98 100 98 95 93 76 44 22 17 16 13 8 4 3 3 3 2 3 3 3 3 3 4 4 4 5 5 6 7 8 8 7 7 7 8 9 9 10 10 10 10 10 11 11 11 11 9 8 7 6 5 4 3 3 3 2 3 3 3 3 3 3 3 3 4 5 5 6 6 5 6 7 9 12 15 17 21 23 24 24 23 23 24 24 24
99 100 100 100 99 100 97 87 68 40 19 15 12 7 4 4 3 3 2 2 3 3 3 4 3 4 4 4 5 6 7 8 8 8 8 8 7 9 10 11 11 10 10 11 11 11 11 10 8 7 6 6 5 4 3 3 3 3 3 3 3 3 3 3 3 4 4 4 6 6 6 5 5 6 8 10 13 16 19 22 23 23 22 23 24 24 25 25
99 99 98 99 96 92 85 69 57 42 27 21 13 6 4 4 3 2 3 3 3 4 3 3 4 4 4 5 6 7 8 9 8 8 8 8 8 10 11 11 12 11 11 11 11 10 10 8 6 6 6 4 3 3 3 3 3 4 4 3 3 3 3 3 3 4 4 5 6 7 6 6 6 7 9 11 14 17 20 21 21 22 23 24 25 25 27 29
99 97 89 87 85 75 55 35 33 31 24 20 11 7 6 3 3 3 3 4 3 4 3 3 4 4 5 6 7 8 9 9 9 9 9 9 10 11 12 12 13 12 11 12 11 11 11 8 6 6 5 3 3 3 3 4 3 3 3 3 3 2 3 3 3 4 5 5 6 7 7 7 7 8 11 13 15 17 20 20 20 22 24 25 26 28 30 33
99 94 73 62 61 58 46 25 17 19 13 9 6 5 5 3 3 3 4 4 3 4 3 4 4 4 5 6 7 8 9 9 9 10 9 10 11 12 12 13 13 12 11 12 12 11 10 8 7 6 4 3 4 4 4 4 3 3 2 3 3 3 3 3 3 4 4 5 5 7 8 8 7 9 12 14 15 17 19 19 20 22 25 27 29 31 34 37
100 90 60 41 35 36 39 30 19 13 6 3 5 4 3 3 3 4 4 4 4 4 4 4 4 5 6 7 8 9 9 9 10 10 9 11 12 13 13 13 12 11 11 12 12 11 9 9 7 5 5 6 5 4 3 3 2 2 3 3 3 3 3 3 4 4 4 5 5 7 10 9 8 9 11 13 15 17 18 18 20 23 26 29 32 36 38 40
101 94 59 28 20 21 22 23 20 12 5 4 4 4 3 3 4 4 4 4 4 4 4 4 5 6 7 8 9 9 9 10 10 10 10 12 13 13 13 12 12 11 12 12 12 11 10 9 7 5 6 5 4 3 2 3 3 3 3 3 3 4 4 4 4 4 4 5 4 6 9 9 9 9 11 13 15 17 17 18 20 23 27 33 38 40 42 44
99 99 77 37 16 15 13 12 13 7 5 5 3 4 3 4 4 4 4 4 4 4 4 5 5 6 7 8 9 9 10 10 10 10 11 12 13 12 12 12 12 12 12 12 12 11 10 9 7 7 6 4 3 3 2 3 3 3 3 3 4 4 4 5 5 5 5 5 5 5 7 10 9 9 11 13 15 15 16 18 22 25 31 39 43 45 46 46
98 96 91 65 31 17 12 6 6 4 4 4 3 3 3 4 5 4 4 4 4 4 4 5 5 7 8 8 9 9 10 10 10 11 11 12 12 12 12 11 12 12 12 13 12 12 10 9 8 7 6 4 3 3 3 3 3 3 3 4 4 4 5 5 5 6 6 5 6 5 7 12 11 9 12 13 14 15 16 19 23 28 37 44 47 48 49 49
99 85 79 72 46 27 17 7 4 4 4 4 3 4 4 5 4 4 4 4 4 5 4 5 6 7 8 8 9 9 10 10 10 11 11 12 12 11 12 11 11 12 13 13 13 12 11 9 9 8 6 5 4 3 3 3 3 3 4 4 5 5 6 6 6 6 6 6 6 6 7 12 11 9 12 15 15 16 17 21 25 34 44 48 50 51 51 52
96 78 62 56 44 31 21 11 7 5 3 3 3 4 5 4 5 4 4 4 5 5 5 5 6 7 8 8 9 9 10 10 10 11 11 11 11 11 11 12 12 13 13 13 13 12 11 10 9 9 8 6 5 4 4 3 3 4 4 5 5 6 6 7 7 7 7 7 7 7 5 9 11 9 12 16 16 18 19 23 30 40 49 51 52 53 53 52
94 75 52 41 36 29 21 14 11 6 3 4 4 5 5 5 5 4 4 5 4 5 5 6 7 8 8 9 9 10 10 10 11 11 12 11 11 11 12 12 12 13 13 13 13 12 12 11 11 11 9 8 6 5 5 4 4 4 5 6 6 7 7 7 8 7 8 7 7 7 5 7 9 9 12 16 17 20 23 27 35 44 51 53 53 53 53 53
93 71 42 29 29 24 18 14 12 9 6 6 6 5 5 5 5 5 4 4 5 5 6 7 8 8 9 9 9 10 9 10 11 11 12 12 12 12 12 12 12 12 12 12 13 13 12 12 12 12 11 9 7 6 5 5 5 5 5 6 7 8 8 8 8 8 8 8 8 8 6 6 8 9 12 15 18 23 27 32 40 47 52 54 54 54 54 55
92 72 36 17 18 14 11 10 6 7 7 7 7 5 5 5 5 5 4 5 7 8 7 7 8 9 10 10 9 9 9 10 11 11 12 12 12 12 11 11 12 12 12 12 13 13 13 13 13 13 13 11 9 7 6 5 5 6 6 7 8 9 9 9 9 9 9 9 9 8 7 7 9 11 12 14 20 25 29 35 43 50 53 54 54 56 56 56
91 78 40 11 9 6 6 7 3 4 5 5 6 5 5 5 5 6 4 7 10 9 8 8 8 9 9 9 9 9 10 10 11 11 11 11 11 11 11 11 11 12 13 13 13 13 13 14 14 14 14 12 11 9 7 6 6 6 7 8 9 9 9 9 10 11 10 10 9 9 8 7 10 13 13 16 21 25 30 37 44 50 53 53 55 57 57 56
86 80 47 12 7 5 4 5 3 4 5 5 6 5 6 6 5 6 5 7 10 9 9 8 9 9 9 9 9 9 9 10 10 10 10 10 10 10 10 11 12 12 13 13 13 14 13 14 15 15 15 14 12 9 7 6 6 7 8 9 10 9 9 10 11 12 12 11 10 10 10 9 10 12 15 18 23 28 31 37 45 50 52 54 56 57 58 58
75 76 51 15 6 6 4 5 3 4 5 5 6 6 6 6 5 6 6 8 10 9 9 8 9 9 9 9 8 8 9 9 9 9 9 9 9 10 11 12 13 13 14 14 14 14 14 15 15 15 16 15 13 10 7 7 7 7 8 8 9 10 10 10 11 11 12 12 11 11 12 12 13 15 18 22 26 31 35 40 47 50 52 56 58 59 60 59
64 70 48 14 7 7 4 5 4 5 6 6 7 6 6 7 6 6 7 8 9 9 9 9 9 9 8 8 8 8 8 8 8 8 8 9 10 11 12 13 14 14 14 14 15 15 15 16 16 17 17 16 14 10 8 7 7 8 8 9 9 9 9 9 10 10 12 15 15 14 15 15 15 18 22 27 31 35 41 46 51 52 54 59 61 61 61 59
62 64 36 9 7 6 4 5 4 6 7 6 7 7 6 7 6 7 7 7 9 9 9 9 9 9 8 8 8 8 8 8 8 8 9 11 11 12 13 13 14 14 15 15 15 16 16 16 17 17 18 17 14 10 8 8 8 9 9 10 10 9 9 9 10 10 11 16 18 18 19 17 16 21 25 30 36 39 45 51 53 54 56 60 62 62 62 60
63 48 19 5 7 5 4 5 5 6 7 6 7 7 7 7 7 8 7 7 8 8 8 9 8 8 8 8 8 7 8 8 8 9 11 12 12 13 13 13 14 14 15 16 16 16 17 18 18 18 19 17 14 11 9 9 9 10 10 10 11 12 13 13 14 13 11 14 18 21 24 22 19 22 27 33 38 41 47 52 53 55 56 57 59 60 60 60
48 24 7 5 5 4 5 5 6 7 6 7 7 7 7 7 7 8 7 7 8 8 8 8 8 8 7 7 7 7 8 8 10 11 11 12 12 13 14 14 15 15 16 16 17 17 17 18 19 19 19 17 14 12 11 11 11 12 12 12 13 14 16 17 17 17 15 13 16 20 25 25 21 22 28 34 40 43 48 51 52 54 54 53 54 55 58 59
21 8 5 5 4 4 5 5 6 6 7 8 7 7 7 8 8 8 8 8 8 8 8 8 7 7 7 7 7 8 9 10 11 11 12 12 13 13 14 15 15 16 17 17 18 17 17 19 20 20 19 16 14 12 12 13 13 13 14 14 15 15 18 19 18 19 18 15 16 20 25 25 19 21 29 35 41 47 49 50 51 52 51 50 50 51 56 59
7 5 5 4 4 5 5 5 7 7 8 8 7 8 8 8 8 8 8 8 7 8 7 7 8 7 8 8 8 9 10 11 11 11 12 12 13 14 15 16 16 17 17 18 18 18 18 19 21 21 18 15 13 13 14 15 16 16 17 17 17 17 19 21 21 22 21 17 16 19 27 30 22 21 31 38 44 49 50 50 50 49 48 47 46 49 55 60
5 4 4 5 5 5 5 5 7 7 8 8 7 8 8 8 8 7 8 7 7 7 7 7 8 8 8 9 9 10 11 11 12 11 12 13 14 15 16 17 17 17 19 19 19 19 18 19 21 20 17 15 14 14 15 17 19 20 21 21 22 23 24 25 27 28 25 21 18 16 25 38 34 28 35 43 46 49 49 50 49 46 45 43 44 49 56 62
4 4 5 5 4 5 5 6 7 8 8 8 8 9 8 8 8 8 8 7 7 8 7 8 8 8 9 10 10 11 11 11 12 11 12 13 14 15 16 17 18 18 19 18 19 20 19 19 20 19 17 15 16 16 16 19 21 23 25 26 27 28 29 30 33 37 34 30 26 18 20 39 46 39 41 47 49 50 49 48 47 43 41 40 42 49 59 66
5 5 4 4 5 4 5 7 8 8 8 9 9 9 9 9 8 8 8 7 8 8 8 9 9 9 10 10 11 11 11 10 10 10 11 13 14 15 17 18 18 18 18 19 19 19 19 17 18 18 17 16 17 17 17 19 23 27 29 29 30 32 32 33 36 42 43 40 37 27 20 37 53 48 46 50 50 50 48 46 44 39 36 37 40 50 62 69
4 4 4 5 6 6 7 8 8 9 9 9 9 9 9 9 8 8 8 8 8 8 9 10 10 10 10 10 10 10 9 9 9 10 11 13 14 15 16 17 17 17 17 18 18 17 16 15 16 18 18 18 19 19 18 21 26 30 33 32 33 36 38 39 39 42 47 46 44 36 25 36 56 54 49 52 51 50 49 44 39 35 32 34 39 52 63 70
4 5 5 6 7 8 8 8 9 10 9 9 10 9 9 9 8 8 8 9 9 9 10 10 10 10 10 10 9 9 8 8 8 9 10 11 12 12 13 14 14 15 15 15 15 14 14 13 14 18 19 20 21 20 20 22 27 33 36 35 35 38 42 45 46 47 50 49 49 43 29 34 56 58 51 53 51 50 49 42 35 30 29 33 41 54 63 68
5 5 6 8 9 8 9 9 10 10 10 10 10 9 9 9 8 9 9 9 10 10 10 10 10 9 9 9 8 8 8 7 8 9 8 9 9 9 10 10 11 12 13 13 14 14 14 13 14 15 18 21 23 24 23 23 27 34 38 38 38 41 45 49 55 55 53 52 52 49 35 34 55 62 54 53 52 50 48 38 30 27 26 33 45 56 62 68
6 7 8 9 9 9 10 10 10 11 11 11 10 10 10 9 9 9 9 10 10 10 10 10 9 9 9 9 8 8 8 8 8 8 8 8 8 8 9 9 9 10 10 11 12 13 13 14 15 13 14 17 21 25 25 24 28 35 40 42 42 45 48 52 58 59 55 51 52 54 44 38 56 66 57 54 54 50 46 35 25 24 26 35 48 57 60 70
9 10 9 9 10 10 10 11 11 12 12 11 11 11 10 10 10 10 10 10 10 10 10 10 9 9 9 9 9 9 9 8 9 8 9 9 8 9 9 9 9 9 10 10 10 11 12 14 16 14 13 16 18 22 22 20 25 35 42 44 44 46 48 53 61 63 59 51 48 58 56 43 54 66 59 57 58 50 42 31 22 23 28 39 51 55 59 75
11 10 10 11 10 10 12 12 12 12 12 12 11 11 11 10 10 10 11 10 10 10 10 10 10 9 9 9 9 9 9 9 9 9 9 9 9 9 9 9 10 9 9 10 9 10 11 12 15 15 17 21 23 25 25 20 25 37 45 47 48 47 47 54 65 68 65 54 46 61 68 53 53 61 56 55 57 50 39 27 22 26 32 43 51 52 61 83
11 11 11 11 12 12 13 13 12 12 12 12 11 11 11 11 11 11 11 10 10 10 10 10 10 9 9 9 9 9 9 9 9 8 8 8 8 8 8 8 9 9 9 9 10 10 10 11 14 15 18 23 26 28 30 27 29 39 49 52 53 51 48 56 68 72 69 60 52 62 71 63 59 60 55 55 55 47 37 26 24 31 37 45 49 51 67 90
12 12 11 12 13 12 12 12 12 12 12 12 11 11 11 11 11 11 11 10 10 10 10 9 9 9 9 9 8 9 8 8 8 7 7 7 7 7 8 8 9 9 10 10 10 11 10 10 14 14 16 25 30 30 30 31 34 43 54 57 53 52 54 58 69 76 72 65 64 66 66 67 68 64 57 58 57 49 37 27 29 35 39 45 47 52 73 94
12 12 12 12 12 11 12 12 11 11 12 11 11 11 11 11 10 10 10 10 9 9 9 9 8 8 8 8 7 7 7 7 7 7 7 7 7 8 8 8 9 9 10 11 11 12 11 11 14 13 13 23 34 35 32 34 38 45 55 60 57 56 59 62 70 79 76 71 73 71 62 63 71 69 63 62 61 52 38 28 33 40 41 43 45 53 76 95
13 13 13 12 12 12 12 12 11 12 11 11 10 10 10 9 9 9 9 8 8 8 7 7 7 7 6 6 6 6 6 6 6 7 7 7 8 8 8 9 10 10 11 12 12 13 13 12 14 14 12 19 33 37 36 38 41 45 53 61 61 58 60 66 73 82 82 78 75 71 63 60 66 71 69 66 62 52 36 29 34 39 41 42 43 53 77 97
13 13 13 13 13 12 11 11 11 10 10 10 9 8 8 8 8 8 7 7 7 6 6 6 6 6 6 6 6 6 6 7 7 7 8 8 8 9 9 9 10 10 11 12 12 14 15 14 15 15 12 17 28 32 34 38 42 48 57 63 65 62 63 70 80 87 89 83 75 71 67 64 66 68 65 64 63 51 33 27 33 37 39 40 43 54 75 95
13 13 12 12 11 10 11 10 9 9 9 8 8 7 7 7 7 7 7 6 6 6 6 6 6 6 6 6 7 7 7 7 8 8 9 10 10 11 11 11 12 12 12 13 14 15 16 16 17 17 14 17 25 29 30 33 39 51 62 64 63 64 66 73 84 93 91 84 78 75 72 71 70 67 62 60 57 43 27 25 32 36 36 38 43 53 70 90
Wind_Speed
8 7 6 4 5 8 10 12 14 15 15 15 14 14 14 14 13 15 17 16 14 13 11 9 8 9 10 9 8 8 8 10 11 10 10 11 11 11 12 11 11 10 9 10 10 10 10 11 11 11 11 11 11 12 11 11 12 12 13 14 14 15 15 16 18 19 19 20 19 18 20 22 22 22 24 25 26 26 26 27 29 29 30 30 31 32 35 37
8 7 6 5 5 8 11 12 14 15 15 15 15 15 15 14 15 17 18 16 14 12 10 9 10 11 10 9 8 7 8 12 13 11 11 11 11 12 11 10 10 9 9 9 10 9 9 11 11 11 11 11 12 11 10 11 11 12 13 13 14 15 16 17 17 18 19 20 21 20 22 23 23 24 26 27 27 27 28 29 29 30 30 31 32 34 36 39
9 8 7 7 6 8 10 12 13 14 15 15 15 16 16 16 17 19 18 15 13 11 10 11 12 11 10 9 7 7 10 13 14 11 11 11 12 11 11 10 9 9 9 9 9 9 10 11 11 11 11 11 11 10 10 11 11 11 13 13 14 16 17 17 18 20 21 22 23 22 23 24 23 25 26 28 29 29 30 30 31 31 32 33 34 36 38 41
9 9 8 7 7 8 10 12 13 15 16 16 16 17 17 17 19 20 17 14 12 12 12 12 12 11 10 8 8 10 12 13 14 12 11 12 11 10 9 9 9 8 8 8 9 9 10 10 10 10 11 10 10 10 10 10 10 11 13 14 16 17 18 19 20 22 23 24 24 24 25 25 24 26 27 29 29 30 31 31 32 33 34 35 37 39 41 43
9 8 8 8 8 9 10 11 13 15 17 17 17 17 17 19 20 18 15 13 13 13 13 12 12 12 10 10 11 12 12 13 13 12 12 12 11 10 9 9 8 8 7 8 9 9 9 9 9 10 10 9 9 9 9 10 11 12 14 16 17 19 20 21 22 23 24 25 26 26 27 26 26 27 29 29 30 30 31 33 34 35 36 38 39 41 43 45
7 7 7 8 9 10 10 11 14 16 16 16 17 17 18 20 19 15 13 13 13 14 13 13 13 12 11 13 14 14 12 12 12 12 12 11 10 9 9 8 7 7 7 8 8 8 8 9 9 9 9 8 8 8 8 10 12 14 16 18 19 20 21 22 23 24 25 26 28 29 28 28 27 28 30 30 31 32 33 34 35 37 38 40 42 44 45 47
6 6 7 9 12 12 11 12 14 14 14 15 17 18 19 19 16 15 14 14 14 14 14 14 13 11 12 14 15 14 13 12 12 12 11 11 9 9 8 7 6 6 7 7 8 8 9 9 9 8 7 7 8 8 8 10 13 15 17 19 20 21 22 23 24 24 25 27 29 29 29 29 28 29 30 31 32 33 34 36 37 39 41 43 44 46 48 49
6 6 8 12 14 13 12 11 12 13 14 16 18 19 19 16 14 14 14 14 13 13 13 12 12 12 13 14 14 14 13 13 12 12 11 10 9 8 7 6 5 6 7 8 9 9 9 8 8 7 7 7 8 9 10 12 14 16 17 19 21 22 23 24 25 24 25 26 28 29 30 30 30 30 31 32 33 35 36 38 40 42 43 45 46 48 49 50
6 7 10 13 14 12 11 12 13 14 16 19 20 19 16 15 14 15 14 13 13 13 12 10 12 14 14 14 14 13 14 13 12 11 10 9 9 8 6 5 5 7 7 8 8 8 7 7 6 6 7 8 10 11 13 15 16 16 17 18 21 23 24 25 25 25 25 26 27 29 30 31 31 32 32 34 35 37 38 40 42 43 45 47 48 49 50 51
7 9 11 13 13 12 12 13 15 16 18 20 20 17 14 14 15 15 14 14 13 12 11 11 14 15 14 14 13 13 13 12 11 10 10 9 8 6 5 5 6 7 7 7 7 7 6 6 6 7 8 10 12 14 15 16 17 17 18 19 21 22 24 25 25 25 25 27 28 29 30 31 31 32 33 35 37 38 40 42 43 45 46 48 49 50 51 51
9 10 10 12 12 12 12 14 16 17 19 19 17 15 14 14 15 15 14 14 13 11 12 14 15 13 12 12 12 12 12 11 10 10 9 8 7 5 4 5 6 6 7 7 7 6 5 5 7 8 9 11 13 14 16 17 18 19 20 20 20 22 23 24 25 26 25 27 29 29 31 32 32 33 35 36 38 39 41 43 44 45 47 48 49 49 50 50
9 10 10 11 12 12 13 14 16 18 19 17 16 15 15 15 15 14 14 13 12 12 13 15 14 11 11 11 11 12 11 11 10 10 8 7 5 4 4 5 6 6 6 6 6 6 6 7 8 9 11 13 14 15 17 17 19 20 21 21 21 22 23 24 25 26 25 26 29 30 31 33 33 34 36 37 38 39 41 43 44 46 47 47 48 49 49 49
7 9 10 11 12 13 14 14 16 17 17 16 16 16 16 15 15 14 14 12 12 13 13 14 12 11 10 11 11 11 11 11 10 9 7 5 4 3 4 5 5 5 5 5 5 6 7 8 10 11 12 14 15 16 17 18 20 21 22 22 22 23 24 25 26 27 27 27 29 31 33 35 35 35 36 37 38 40 41 43 44 46 46 47 47 48 48 49
4 8 11 12 12 14 15 16 17 16 15 16 17 17 16 15 15 14 13 12 13 14 13 13 13 12 10 10 11 11 11 10 9 7 6 4 3 3 4 5 5 5 5 5 5 7 8 9 11 12 13 14 16 17 18 19 20 22 22 23 24 24 25 26 27 29 30 29 29 31 32 35 35 35 36 37 38 40 41 43 44 45 45 46 47 47 48 48
3 6 10 12 12 15 17 17 17 17 16 16 16 16 15 15 14 13 12 13 14 14 13 13 12 11 9 9 11 11 10 9 8 6 5 3 2 3 4 4 4 4 4 5 6 7 9 10 11 12 14 15 16 16 18 20 21 22 23 24 25 26 27 28 28 29 31 31 30 30 31 34 36 35 36 37 38 40 41 42 43 44 45 46 47 47 47 48
4 4 8 11 13 16 19 18 17 17 17 16 15 15 15 14 13 12 13 14 14 13 13 12 11 10 9 10 11 10 9 8 6 5 4 2 2 3 4 4 4 4 5 7 8 8 9 10 11 13 15 15 15 16 19 20 21 22 23 25 27 28 28 29 29 30 31 32 30 30 31 33 36 36 36 37 38 40 40 41 43 44 45 46 46 47 48 49
5 4 6 10 13 16 18 17 15 16 17 16 16 16 15 14 12 13 14 13 13 12 12 11 10 10 10 10 10 10 8 7 6 4 2 1 1 3 3 3 4 5 6 8 9 10 12 13 14 15 16 16 16 18 20 21 22 23 24 25 27 28 28 29 30 30 31 32 31 30 31 33 36 37 37 38 39 39 40 41 43 44 45 45 46 47 48 49
5 5 6 9 12 14 16 16 15 15 16 15 16 16 15 13 13 14 13 12 12 12 11 10 10 10 10 10 10 9 8 6 5 3 1 1 1 2 3 3 5 6 7 9 11 13 14 14 16 17 17 17 19 21 22 21 22 23 24 25 26 28 28 29 31 30 31 32 32 30 31 33 36 37 37 38 39 39 40 41 43 44 45 45 46 47 48 50
6 6 6 8 10 12 14 16 15 14 14 15 16 15 13 13 14 14 12 11 11 10 10 9 9 10 10 10 9 9 7 6 3 2 2 1 1 2 3 4 6 7 8 10 12 13 14 15 16 17 17 19 20 20 21 21 22 23 24 25 26 27 29 29 30 31 31 32 34 32 31 33 36 37 37 37 39 39 40 42 43 44 44 44 46 47 48 50
8 7 7 8 10 11 12 15 14 13 14 14 15 13 12 13 14 13 11 11 10 9 9 9 9 10 10 10 9 8 7 5 2 3 2 0 1 2 4 5 7 8 9 11 12 13 15 16 17 17 17 18 18 18 19 21 22 23 24 25 26 27 28 29 30 32 32 32 34 33 31 33 36 38 37 38 39 39 40 42 43 43 43 44 46 47 49 51
9 9 9 10 12 12 12 13 13 12 13 13 12 12 12 14 13 12 11 10 9 10 9 9 9 9 10 9 9 7 6 4 3 3 2 1 3 4 5 6 8 10 11 12 13 15 16 17 18 18 18 18 18 19 20 21 22 24 25 26 27 27 28 30 31 32 33 34 35 35 33 34 37 39 38 38 39 40 41 42 42 42 43 44 45 47 49 51
10 10 10 11 13 13 12 12 12 12 13 12 11 11 13 13 12 12 11 10 9 10 9 9 9 9 9 9 9 7 6 5 4 4 3 3 4 5 6 8 10 11 13 13 14 16 17 18 19 19 20 20 20 20 21 22 23 25 26 27 28 29 30 31 32 33 34 36 37 37 35 34 37 40 39 38 39 40 41 42 42 42 42 44 45 47 49 51
10 10 11 12 13 14 13 12 12 13 12 11 11 12 13 12 11 11 10 9 9 9 8 8 9 9 10 9 9 7 5 5 4 4 4 5 6 7 8 10 11 13 15 15 16 17 18 19 20 21 21 22 21 22 23 24 25 26 27 28 29 30 31 32 33 34 36 38 39 38 37 34 37 40 39 39 40 41 42 42 42 41 42 44 46 48 50 52
10 10 11 12 13 14 13 12 12 12 11 11 12 13 11 10 10 9 9 8 8 8 8 8 9 10 10 9 8 7 6 5 4 5 6 7 8 8 10 12 13 15 16 17 18 19 20 21 22 22 23 23 23 24 24 25 26 27 28 29 30 31 32 33 34 34 35 38 39 39 38 35 37 41 39 40 41 41 42 42 42 42 42 45 47 49 51 52
10 11 12 13 14 14 13 13 11 10 10 11 12 11 10 9 8 8 8 8 7 7 8 9 10 10 9 9 8 7 6 5 5 7 7 8 9 10 11 13 15 16 18 19 20 21 21 22 23 24 25 25 25 25 26 27 27 28 29 30 31 32 33 34 36 36 36 39 40 41 42 38 38 42 41 41 42 42 43 43 42 42 44 46 48 50 51 53
11 11 12 14 15 14 13 12 10 9 11 12 11 10 8 8 7 7 7 7 7 7 8 9 9 9 9 8 7 7 6 6 6 7 8 8 10 11 13 15 17 18 20 21 22 22 23 24 25 26 27 27 27 27 27 28 29 29 30 31 32 33 34 35 37 38 38 40 41 41 44 42 40 42 42 42 42 42 43 43 43 44 45 48 50 51 52 54
11 11 12 13 14 14 14 12 10 10 11 11 10 8 7 6 6 6 7 7 7 8 8 8 9 9 8 9 8 7 7 7 8 8 8 9 11 12 14 16 18 20 21 22 23 24 25 26 27 27 28 28 28 29 29 29 29 30 31 32 33 34 35 36 38 38 39 41 41 41 44 44 42 43 44 43 43 42 43 44 44 45 47 49 51 52 54 55
11 11 12 13 13 14 14 12 11 11 12 11 9 8 6 6 6 6 7 7 7 8 9 8 9 8 7 8 8 8 8 8 9 9 10 11 12 14 16 18 19 21 22 23 24 25 26 27 28 29 30 30 30 30 30 30 30 31 32 32 33 34 36 38 39 39 40 41 42 42 45 47 44 44 45 44 43 43 44 44 45 46 48 50 52 53 54 56
11 11 12 12 12 14 13 12 12 13 12 10 8 6 6 6 5 6 7 7 7 8 9 9 8 8 8 8 8 8 8 9 10 10 12 13 15 16 18 19 21 22 23 24 25 26 27 28 30 31 31 31 31 31 31 31 31 31 32 33 34 35 37 39 40 40 40 41 42 43 47 49 46 45 46 45 44 44 45 45 45 47 48 50 52 54 55 56
11 11 12 12 12 13 12 11 12 13 11 9 7 6 6 6 5 6 7 7 7 7 8 8 8 8 9 8 9 9 10 10 11 12 13 15 16 18 19 20 21 23 24 25 26 28 28 29 30 31 32 32 32 32 32 32 32 32 33 34 35 37 39 40 40 41 41 42 44 45 48 50 48 47 47 46 45 45 45 46 46 47 48 50 53 54 56 57
12 12 12 12 13 13 12 11 12 12 10 8 6 5 6 5 6 6 6 7 8 7 7 7 8 8 9 9 10 10 11 11 12 13 15 16 18 19 20 21 22 23 24 25 26 28 29 30 31 32 32 33 33 33 33 33 33 34 35 36 37 39 40 41 42 43 44 44 46 47 48 49 49 48 47 46 46 45 46 46 47 48 49 51 53 55 57 58
12 13 13 13 13 13 11 11 12 10 8 7 6 6 6 5 6 6 6 7 8 7 7 7 8 8 9 10 10 11 12 12 13 15 16 17 19 19 20 21 22 23 24 25 26 27 29 30 31 32 32 33 33 33 33 33 34 35 37 37 39 40 42 43 45 46 46 45 46 48 49 49 49 47 46 45 45 46 46 47 47 48 50 52 54 56 58 59
13 14 13 14 14 13 11 11 11 9 7 6 6 6 6 6 6 6 6 6 7 7 7 8 8 9 10 10 11 12 12 13 15 16 16 18 19 20 21 22 23 24 25 26 27 27 29 30 31 32 32 33 33 32 32 33 34 36 38 39 41 42 44 46 47 49 48 45 45 46 47 49 50 47 45 44 45 46 46 47 48 49 51 53 55 57 59 60
14 14 14 14 14 12 12 11 10 8 7 6 6 6 6 6 5 5 6 6 6 7 8 9 10 10 10 11 12 12 13 14 16 17 17 18 19 21 22 23 25 26 26 27 27 28 29 30 31 32 33 33 32 32 33 33 35 37 39 40 42 44 45 47 48 49 50 48 46 45 44 48 50 47 45 44 45 46 47 48 49 50 52 54 56 58 60 62
14 14 14 14 13 12 12 10 8 7 7 6 6 6 5 5 5 5 5 6 6 7 9 10 11 11 11 12 12 13 15 15 16 17 19 20 21 22 23 24 25 26 27 28 28 29 30 31 32 33 33 33 33 33 33 34 36 38 40 42 43 44 45 47 48 49 51 51 49 45 43 46 50 47 45 45 45 47 48 48 50 51 53 55 57 59 61 62
14 14 14 13 12 12 11 9 7 7 7 7 6 6 5 5 4 4 5 6 6 8 9 10 11 12 12 12 13 14 15 16 17 18 20 21 22 23 24 25 26 27 28 28 29 30 31 31 32 33 34 33 33 34 35 36 37 39 41 43 44 45 46 48 49 50 52 53 51 47 43 46 50 48 46 46 46 47 49 49 51 53 54 56 58 60 61 63
14 14 13 12 12 11 9 8 7 7 7 6 6 5 5 4 4 4 4 6 7 8 10 11 11 12 13 13 14 15 16 17 18 20 21 22 23 23 25 26 27 27 28 29 30 31 32 32 32 33 34 34 34 35 36 37 38 40 42 44 45 47 47 48 49 50 52 54 54 51 45 45 50 50 47 47 47 48 50 51 53 54 55 57 58 60 61 63
14 13 12 12 11 9 8 8 8 7 7 6 5 5 4 3 3 4 5 6 8 9 11 11 12 13 13 14 15 16 17 18 19 20 21 22 23 24 25 26 27 27 28 29 30 31 32 32 32 33 34 34 35 36 37 38 39 40 42 44 45 47 47 48 49 50 52 54 55 54 47 42 47 50 47 47 48 49 50 52 54 55 56 57 58 60 61 62
13 12 12 11 9 8 8 8 8 7 6 5 5 4 3 2 3 4 5 7 9 10 11 12 12 13 14 15 15 16 18 19 19 21 21 22 23 24 24 25 27 27 28 29 30 31 32 33 32 32 34 35 36 37 39 39 40 41 43 44 45 46 47 48 48 48 51 53 55 56 49 41 44 49 47 46 48 49 51 53 55 56 56 57 58 59 61 62
12 11 10 9 8 8 8 8 7 6 5 5 4 3 3 3 3 5 6 8 9 10 12 12 13 14 14 15 16 17 18 19 20 21 22 22 24 24 24 25 26 27 28 29 30 31 32 33 32 33 34 36 37 39 40 41 41 41 43 45 46 46 47 48 48 47 49 51 52 56 52 42 41 47 47 46 49 50 52 54 55 57 57 57 59 59 61 62
11 10 8 8 8 8 8 8 7 6 6 5 4 4 3 3 4 5 7 8 10 11 12 13 13 14 15 16 17 18 18 19 20 21 22 23 24 24 24 25 26 27 28 29 30 31 32 33 33 33 35 36 38 40 41 42 42 41 42 45 46 47 47 48 48 48 48 49 49 54 53 43 39 46 46 46 49 50 53 56 57 58 58 58 59 60 61 63
10 9 8 7 8 8 8 8 8 7 6 6 5 4 4 5 5 6 8 9 11 12 12 13 14 15 16 17 17 18 19 19 20 21 22 23 24 24 25 25 26 27 28 29 31 32 33 34 34 35 36 37 38 40 43 44 43 42 42 44 46 47 47 47 48 48 48 48 48 51 53 44 40 45 47 46 50 51 54 57 58 58 59 58 59 60 62 64
10 9 8 8 8 8 8 8 8 7 7 6 6 5 5 6 6 8 9 10 11 12 13 14 15 16 17 17 18 19 20 20 20 22 23 24 25 25 26 27 28 29 29 31 32 33 35 35 36 37 37 38 38 40 43 44 44 42 42 44 46 48 47 46 46 47 48 48 48 50 53 47 41 44 47 47 51 53 55 58 59 59 59 59 60 61 63 65
8 7 7 8 8 8 8 8 7 7 7 7 6 6 6 7 8 9 10 11 12 13 14 15 16 17 18 19 19 20 21 22 22 23 24 26 27 27 29 29 30 31 32 33 34 35 37 38 38 40 40 40 40 41 43 45 44 43 42 43 46 48 48 46 46 47 48 49 48 48 52 48 42 44 47 48 51 54 56 59 60 60 60 59 60 62 63 66
7 7 7 7 8 8 8 7 8 7 7 7 7 7 8 8 9 10 11 12 13 14 16 17 18 19 19 20 21 22 24 25 25 26 27 28 29 30 31 32 33 34 34 36 37 37 39 39 40 42 43 43 43 43 45 47 46 44 42 43 46 48 49 47 46 47 48 50 49 47 50 48 42 43 47 48 52 56 57 59 60 60 60 59 60 62 64 66
6 6 7 7 7 7 7 7 8 8 8 8 8 9 9 10 11 12 13 14 15 16 18 19 20 21 21 22 24 24 26 27 28 29 29 31 32 32 33 34 34 35 36 37 38 39 40 40 40 42 43 43 43 43 45 47 46 44 42 43 46 48 49 47 46 46 47 50 49 46 49 49 44 45 48 48 52 57 58 59 59 59 60 60 61 63 65 67
6 6 7 7 7 7 7 7 7 7 8 9 9 10 11 12 12 13 15 16 17 18 19 21 22 23 24 25 26 27 28 29 30 31 32 33 33 34 34 35 36 36 37 38 39 40 41 40 40 42 42 43 42 42 44 46 45 43 41 41 45 48 48 46 45 45 46 50 49 46 48 49 46 48 50 50 53 57 58 59 59 59 60 61 62 64 66 67
6 6 6 6 7 7 7 7 8 8 9 10 11 11 12 13 14 15 17 18 19 20 21 23 24 25 26 27 28 29 30 30 31 32 33 34 34 35 36 36 36 37 38 39 39 40 41 41 41 42 42 42 42 42 43 45 45 42 40 41 45 47 47 46 45 44 45 48 49 48 49 48 47 49 52 52 55 58 59 59 59 60 61 62 62 64 66 67
6 6 6 7 7 7 8 8 9 10 10 11 12 13 14 15 16 17 19 20 21 22 23 25 26 27 28 29 30 31 31 32 32 33 34 34 35 36 36 36 37 37 38 39 39 40 41 41 41 42 42 40 40 42 43 44 44 42 39 40 44 46 46 46 44 43 45 47 47 49 50 47 47 51 54 54 56 58 59 59 58 60 62 62 63 65 66 67
6 6 7 8 8 8 9 9 10 11 12 13 14 15 16 17 18 19 20 22 23 24 25 26 28 28 29 30 31 32 32 33 34 34 34 35 35 36 36 37 37 38 38 39 40 40 41 42 42 43 42 40 39 42 43 44 44 42 39 39 44 45 45 45 44 42 44 46 48 50 51 49 48 52 55 56 58 59 59 58 59 61 63 63 63 64 66 67
7 8 8 9 9 10 11 11 12 13 14 14 16 17 18 19 20 21 22 23 25 26 27 28 29 30 31 32 33 33 34 34 35 35 36 36 37 37 38 38 38 39 39 40 41 41 42 43 43 44 44 41 41 42 44 44 44 41 38 39 43 45 45 45 43 41 43 46 49 50 51 51 51 53 56 58 60 61 59 58 59 61 63 63 63 64 66 67
8 9 10 11 11 11 12 13 14 15 15 16 17 18 20 21 22 23 24 25 26 28 29 30 31 32 32 33 34 35 36 36 36 37 37 38 38 39 39 40 40 41 41 41 42 42 43 44 44 45 46 43 43 44 45 45 44 40 38 41 44 45 45 44 42 40 42 46 50 50 51 52 53 55 57 59 61 62 60 58 60 62 63 63 63 65 66 68
Wind_Direction
212 219 238 257 243 223 216 216 220 218 211 209 212 212 212 215 215 203 192 183 180 182 181 171 157 150 144 142 146 151 149 132 128 135 134 133 134 130 125 122 118 113 107 98 90 83 74 68 63 57 53 46 38 32 24 22 21 12 9 11 8 4 4 4 2 357 356 352 351 348 340 342 348 344 339 336 337 340 339 334 332 332 332 331 329 328 328 328
221 227 246 264 250 225 216 216 219 218 213 210 210 209 207 207 205 197 187 178 174 174 170 159 151 149 143 146 150 152 156 139 131 138 140 140 138 133 129 125 120 113 108 100 92 84 71 61 55 49 45 38 32 25 18 19 17 12 10 9 8 5 3 5 0 356 354 349 347 345 341 344 348 343 337 334 335 336 334 332 331 331 330 328 326 325 325 326
229 234 251 265 249 227 219 217 219 218 216 213 212 208 202 199 195 188 178 169 168 166 160 154 151 148 144 150 150 157 169 147 133 142 148 145 141 136 133 128 123 116 108 99 87 76 63 55 49 41 35 30 26 19 16 17 15 11 9 9 10 4 1 3 359 355 352 347 345 343 341 346 347 343 337 334 334 333 331 330 328 327 326 324 323 323 323 323
235 241 256 263 239 220 219 219 218 217 215 211 209 205 199 194 188 178 167 159 160 159 154 153 150 145 144 150 151 160 167 145 135 150 154 148 143 139 137 132 126 119 107 92 78 67 59 55 46 38 31 25 19 15 15 16 14 11 7 9 9 3 357 359 357 354 351 345 342 341 341 344 345 340 335 334 335 334 330 328 325 324 322 321 321 321 321 322
237 249 259 250 219 205 209 214 211 208 205 202 201 198 194 190 181 167 157 153 156 156 151 151 149 146 149 154 153 156 155 141 143 157 155 149 147 145 143 137 130 121 105 87 75 66 57 50 41 35 29 20 15 15 13 12 12 10 7 5 3 358 352 352 354 351 347 342 338 338 339 342 341 337 333 333 333 331 328 325 323 322 320 319 319 320 320 321
242 256 252 224 197 191 198 200 197 195 193 195 194 189 185 183 169 152 151 154 156 157 153 152 152 151 153 154 152 151 148 146 153 159 156 153 153 150 146 139 131 116 97 84 75 66 53 41 34 29 24 16 13 13 8 7 10 9 5 359 355 354 349 347 351 349 344 340 336 336 336 338 339 336 332 330 329 327 325 323 322 320 319 319 319 319 319 320
252 255 228 199 187 187 192 193 191 189 187 187 187 182 180 174 155 143 151 156 157 159 157 156 155 152 154 154 154 152 151 155 160 161 159 159 156 153 147 140 129 107 88 75 66 55 42 34 29 23 16 12 9 6 4 6 9 7 2 353 349 351 349 347 349 348 343 339 335 334 333 334 336 333 329 328 326 324 323 322 321 320 319 319 319 318 318 319
249 231 200 189 188 188 190 190 187 186 184 183 182 180 174 161 147 146 152 155 158 160 157 158 155 153 157 158 157 156 156 161 165 165 163 160 157 156 150 138 119 95 75 60 51 42 35 30 25 18 10 5 1 1 3 4 6 4 359 351 346 350 351 348 348 345 341 338 334 332 330 331 332 330 327 325 323 322 322 321 320 320 320 320 319 318 318 319
226 201 191 191 191 188 188 187 183 183 183 180 178 174 163 150 147 150 152 155 158 159 157 160 158 156 160 161 160 162 161 162 166 167 164 162 160 159 150 132 105 82 64 50 44 38 35 29 21 13 4 358 358 0 1 360 360 356 354 352 348 350 351 346 344 342 339 336 334 331 330 330 330 328 325 323 322 322 322 321 320 320 320 320 319 319 318 318
200 191 191 193 195 196 192 186 180 179 179 177 169 159 150 148 149 151 154 157 160 160 158 160 158 156 162 162 161 166 163 161 167 167 166 166 164 159 147 120 91 72 56 42 38 36 33 27 17 7 358 357 359 358 356 355 352 348 353 355 349 348 347 343 340 339 338 336 333 331 329 328 328 325 324 323 322 322 321 321 321 320 320 320 320 319 318 318
188 186 187 191 198 203 199 189 180 177 177 173 158 146 147 151 151 154 156 158 159 159 158 158 155 154 161 164 166 169 164 164 169 171 172 170 163 157 136 99 77 60 48 40 36 31 24 20 12 1 356 357 357 354 352 350 346 347 353 352 348 346 343 340 337 336 337 335 332 330 327 326 327 325 325 324 322 322 321 321 321 320 320 320 319 319 318 319
187 191 191 194 200 203 200 191 180 178 177 165 148 145 151 154 155 155 155 157 157 157 158 156 152 155 164 170 173 171 168 169 173 175 176 169 161 151 112 80 66 52 45 42 35 22 12 11 4 356 355 354 352 351 349 346 345 349 351 347 345 345 341 337 335 333 335 334 330 328 326 326 327 326 324 323 322 321 321 321 321 320 320 320 320 320 320 320
194 207 207 206 205 199 195 186 177 176 171 155 148 151 154 155 156 155 154 155 154 154 157 156 156 162 171 178 178 176 173 173 176 178 174 167 159 133 90 69 59 51 48 42 27 11 4 2 357 352 351 350 349 348 345 345 348 349 346 343 343 343 339 336 335 333 334 334 331 329 328 326 326 325 323 322 322 322 322 321 321 320 321 321 321 321 322 322
213 227 217 213 208 195 187 182 175 166 158 151 151 154 155 156 154 154 154 154 154 156 159 163 167 169 175 183 182 179 177 176 181 180 174 166 147 107 77 64 55 52 45 32 17 5 357 355 352 348 347 348 347 342 343 348 349 346 343 341 341 341 338 336 336 334 331 333 332 330 328 324 323 323 322 323 323 322 322 321 321 320 321 321 322 322 323 324
210 228 214 205 199 189 182 180 170 155 150 153 154 155 155 153 152 154 156 156 157 160 165 170 172 172 179 189 185 180 180 181 184 181 173 163 134 91 73 62 50 41 27 13 5 357 353 352 345 343 347 347 341 339 346 350 347 344 341 340 341 340 337 335 336 333 330 331 331 329 326 322 321 323 323 324 323 322 321 320 320 319 320 321 322 323 324 325
183 201 201 191 186 185 179 174 164 152 152 154 153 154 153 151 153 155 157 158 160 165 171 172 174 178 186 192 186 182 185 185 188 186 172 157 125 84 70 55 30 16 7 2 352 347 353 348 339 345 348 340 336 344 351 349 345 343 341 341 341 338 336 335 334 332 329 328 328 327 326 323 322 324 324 324 323 321 321 319 318 318 319 321 323 324 326 326
168 170 180 175 172 177 172 161 156 154 155 157 156 155 153 152 155 156 158 160 164 170 173 174 180 187 191 191 186 184 190 193 195 193 174 163 107 73 58 35 5 350 353 353 344 347 352 343 343 348 341 333 341 351 352 347 344 342 342 343 339 335 335 335 333 331 328 326 327 327 327 325 324 325 325 324 322 321 320 318 317 318 320 322 324 326 327 328
171 158 161 161 158 164 156 146 152 157 158 161 159 157 154 154 155 157 160 164 169 173 175 179 186 191 191 189 187 187 195 200 198 194 192 190 80 59 36 7 338 328 342 349 348 350 345 340 344 340 332 340 350 351 348 344 342 342 342 341 337 334 334 335 332 331 328 326 327 328 329 328 326 325 325 323 322 320 319 318 318 319 321 324 326 327 329 329
176 152 145 152 148 152 148 145 155 160 161 163 160 158 156 155 156 158 163 168 172 175 179 185 189 192 191 190 190 192 200 205 200 216 224 198 49 24 7 349 324 323 342 350 347 341 336 339 338 332 337 348 347 343 341 340 341 342 341 338 337 335 334 335 333 331 330 328 328 330 331 330 327 325 325 323 322 320 318 319 320 320 323 325 327 328 330 330
178 156 145 150 144 146 149 149 158 162 162 163 160 158 157 157 159 162 166 170 174 179 184 190 191 193 193 194 196 199 208 215 220 243 231 187 353 336 346 334 322 331 345 346 338 333 336 335 328 333 344 344 338 337 338 340 341 340 339 337 337 336 334 334 334 333 333 331 330 331 331 331 328 325 325 324 322 320 320 321 321 322 324 327 328 329 330 331
182 167 154 156 150 150 154 156 163 166 164 163 161 160 160 163 166 167 169 174 181 186 188 194 197 197 196 198 201 207 217 225 240 254 250 320 318 318 328 325 327 335 339 337 333 333 333 327 326 337 342 338 336 339 339 341 340 337 337 337 337 336 334 334 335 335 335 334 333 333 333 332 329 326 326 325 323 322 322 323 323 324 326 328 329 330 331 332
187 184 170 167 159 154 157 163 167 167 165 164 164 165 165 168 172 173 175 181 188 191 192 199 204 201 200 204 210 217 226 233 250 265 279 306 304 308 319 323 328 332 332 332 331 330 327 324 329 336 337 337 337 338 339 339 336 335 336 336 335 336 335 335 336 336 337 337 337 336 334 333 330 327 327 326 324 324 325 325 325 326 328 329 330 331 333 334
187 190 182 180 173 161 159 164 167 166 166 168 168 168 169 172 178 181 183 188 195 198 199 204 207 204 205 212 217 224 236 244 260 280 293 299 297 302 315 320 323 326 329 330 330 328 326 326 330 333 335 336 335 336 337 334 333 335 335 335 335 336 336 336 336 337 338 338 338 337 335 333 330 328 327 327 326 326 327 326 326 328 330 330 331 333 335 336
178 175 175 179 179 170 162 162 167 169 169 170 170 170 172 177 185 189 191 197 202 204 205 207 208 208 212 220 226 233 244 256 278 296 297 296 298 304 314 318 320 325 326 326 327 326 326 327 329 332 334 334 334 335 335 331 332 334 334 334 335 336 336 337 337 337 336 336 337 336 334 333 330 329 329 328 328 328 328 328 329 331 332 332 333 335 336 337
168 162 167 174 175 171 165 163 168 174 173 170 169 171 177 184 194 198 201 207 208 208 209 207 209 213 218 227 237 246 256 272 289 295 294 296 300 307 315 317 320 323 323 324 325 325 326 327 328 331 333 332 333 334 333 332 332 333 333 333 334 335 336 337 337 337 336 335 335 335 334 335 333 331 330 329 329 329 329 330 332 333 334 334 335 336 337 338
159 160 167 173 172 169 167 167 173 178 173 170 170 176 185 192 201 208 210 212 211 210 211 210 213 219 225 234 246 257 266 281 289 292 296 301 305 311 316 318 320 322 323 323 324 325 324 324 327 330 331 332 331 331 333 332 331 331 331 332 334 335 336 336 337 337 336 334 335 334 333 335 334 332 331 331 330 331 331 333 334 335 335 336 336 337 338 339
157 161 167 172 172 170 169 171 179 182 177 174 175 185 194 199 209 217 216 214 214 212 211 213 219 226 236 243 253 263 270 280 287 292 299 305 309 314 316 318 319 321 322 322 323 323 323 324 327 329 330 329 329 330 331 330 330 329 330 332 334 335 335 335 336 337 336 334 334 333 331 334 335 333 332 332 332 333 333 334 336 336 336 336 337 338 339 340
164 165 168 173 174 173 172 175 182 184 182 180 183 193 200 206 218 222 215 210 211 211 212 218 226 236 248 253 260 267 273 282 288 293 300 305 310 313 315 316 317 319 320 320 321 322 322 324 327 328 328 327 327 328 328 327 328 328 329 331 333 334 334 335 336 336 335 333 332 331 331 333 335 334 333 333 333 334 335 336 337 336 336 336 338 339 339 340
174 173 173 177 177 177 178 181 184 183 183 185 190 200 205 213 222 217 211 206 205 213 221 228 235 246 255 261 266 269 276 284 289 295 302 307 310 311 313 314 316 317 318 319 320 321 323 325 326 326 325 325 325 325 325 325 326 327 329 330 331 332 333 335 335 334 334 333 332 331 331 333 335 334 334 335 335 336 336 336 336 335 335 336 338 339 339 340
184 183 181 182 181 180 183 187 186 183 185 190 198 208 213 219 219 212 213 212 210 218 230 239 248 256 261 267 271 273 278 284 291 299 304 308 309 311 312 313 315 316 317 318 320 321 323 324 324 323 322 323 323 322 323 324 325 326 327 329 330 331 333 334 333 333 334 333 332 332 332 333 335 335 336 336 336 336 335 335 335 334 335 337 338 339 340 340
190 190 187 187 185 184 188 191 187 185 189 197 206 217 221 224 220 214 216 220 222 229 240 251 262 268 270 274 276 278 281 287 295 302 306 307 308 310 311 312 313 314 316 318 320 321 322 322 322 321 320 320 320 320 322 323 324 324 326 328 329 331 331 331 332 333 334 333 333 333 333 334 335 336 337 336 336 336 335 334 334 334 335 337 338 339 340 339
191 191 191 191 189 188 192 192 189 189 195 205 217 225 226 227 224 218 219 226 233 242 253 263 273 276 278 281 281 283 287 293 299 303 305 306 306 308 309 311 312 313 315 317 318 319 319 319 319 319 319 319 318 319 321 322 322 324 326 328 328 328 329 330 331 332 333 335 334 334 334 333 335 337 337 336 335 335 334 334 334 335 336 337 338 339 339 339
190 191 192 192 190 191 195 193 190 194 203 214 224 228 228 228 226 223 226 232 238 249 262 274 284 286 287 288 288 290 293 297 301 303 304 304 305 307 309 310 312 313 315 315 316 316 317 317 317 317 317 317 318 319 320 321 322 324 325 326 326 327 328 330 330 330 332 334 335 336 335 332 334 337 337 336 335 334 335 335 334 335 336 337 337 338 338 339
189 191 192 190 190 193 193 190 191 201 213 221 226 228 229 227 226 231 234 239 247 259 272 283 290 293 293 293 293 294 296 299 302 303 305 305 307 309 309 311 311 312 313 313 313 314 314 315 316 316 317 317 318 318 319 321 322 323 324 325 325 327 329 329 329 329 329 331 334 336 336 332 333 336 336 335 335 335 336 335 334 336 336 337 337 337 337 338
188 189 188 188 191 191 188 189 197 210 219 225 227 228 227 223 225 236 244 252 263 274 284 291 294 296 296 295 296 297 299 301 303 305 306 308 309 309 309 309 309 310 310 311 312 312 313 314 316 316 316 316 317 318 319 320 322 322 323 324 325 327 328 328 328 328 327 329 332 335 337 333 332 335 336 335 335 335 336 334 334 336 336 336 336 336 336 337
186 185 184 186 187 184 185 194 207 216 222 227 227 225 224 223 228 243 257 268 279 288 293 297 298 298 298 297 298 300 302 303 305 307 307 308 309 308 308 308 308 309 309 309 310 311 313 314 315 316 315 316 317 318 319 320 321 322 322 323 324 326 327 326 327 327 327 328 330 334 338 334 332 335 336 335 336 335 335 334 335 335 336 335 335 335 336 337
181 182 182 182 181 181 190 203 213 220 222 223 222 220 220 225 237 256 274 283 292 297 299 300 300 299 299 300 300 303 305 305 307 308 308 309 309 308 308 308 308 309 308 309 309 310 312 313 314 315 314 315 316 317 318 319 320 321 321 322 323 324 325 325 326 327 327 328 329 333 340 337 332 334 336 335 335 335 335 335 334 335 335 335 334 334 335 336
179 179 179 178 179 188 200 208 217 222 220 216 215 216 222 236 255 274 290 297 302 302 301 302 301 300 301 301 302 304 306 307 308 309 309 310 309 309 309 308 308 308 307 308 308 309 310 312 313 314 313 315 316 316 317 318 319 320 320 322 323 324 325 325 326 327 327 327 328 331 340 341 332 333 336 335 334 334 334 334 334 335 335 334 334 334 335 336
177 177 177 180 187 200 207 211 217 217 213 210 208 214 234 258 278 294 304 305 305 305 303 303 302 301 301 302 303 305 307 308 309 310 310 310 309 309 309 308 308 308 307 307 307 308 310 312 313 314 313 314 315 315 316 317 318 319 320 321 322 323 324 325 327 328 327 328 328 330 339 343 333 331 334 334 333 334 333 333 333 334 334 333 333 334 335 336
174 176 181 190 202 209 209 213 213 210 208 207 207 219 241 267 288 303 307 306 305 304 303 302 301 301 301 302 304 305 307 309 310 310 310 310 310 310 310 308 308 308 308 308 308 308 309 311 312 313 312 313 314 314 315 316 318 319 320 320 321 322 323 324 326 328 327 328 329 329 336 344 335 329 332 333 332 333 332 332 333 333 333 333 333 334 334 335
176 183 192 200 209 210 209 210 207 205 206 208 214 225 243 267 286 297 303 303 303 303 302 301 301 300 301 302 304 306 307 308 309 309 310 310 310 311 311 309 309 309 309 309 308 309 310 311 312 312 311 312 313 313 314 315 317 319 319 319 320 321 323 325 326 327 327 328 328 328 333 342 337 327 330 332 331 332 332 331 332 332 332 333 332 333 334 335
183 196 202 202 206 207 205 208 207 209 212 218 228 240 256 273 286 293 298 299 299 300 300 300 301 301 302 303 305 306 306 307 308 308 309 310 310 311 312 311 310 310 310 309 309 310 310 311 312 311 311 312 312 313 313 314 316 318 319 319 319 321 323 324 325 326 327 327 327 326 329 338 339 328 328 331 330 331 331 330 331 331 331 332 332 333 334 336
193 202 202 202 205 205 207 210 212 218 224 231 242 252 264 276 285 291 294 296 297 299 300 300 301 301 303 304 304 305 305 306 307 307 308 309 310 311 311 310 310 310 310 309 309 309 309 310 311 310 310 311 312 312 312 313 315 317 318 319 319 319 321 324 325 325 327 326 326 325 326 334 339 329 326 330 329 330 331 330 330 330 330 331 332 333 335 335
196 200 202 204 206 208 213 218 222 229 236 243 253 261 269 279 285 288 291 293 296 298 298 299 300 301 303 303 304 304 304 305 305 306 307 307 308 309 308 309 309 309 309 308 308 308 309 310 310 310 311 311 312 312 312 313 315 318 319 320 319 318 320 323 324 324 326 325 324 326 324 330 337 328 325 329 328 329 331 330 329 329 329 331 332 333 335 335
193 199 205 209 212 217 225 231 236 243 249 257 264 270 276 282 286 289 291 293 295 297 297 298 299 300 301 302 303 303 303 304 304 305 305 305 305 306 306 307 307 307 307 307 307 308 308 310 310 311 312 312 313 314 313 314 316 318 320 320 318 317 319 322 323 324 324 323 325 326 322 326 333 326 323 328 327 328 331 330 329 328 328 331 332 333 335 335
196 205 213 218 223 230 239 245 250 255 262 268 274 279 283 285 288 290 292 293 295 296 297 298 298 299 300 300 301 302 302 302 303 303 303 303 304 305 305 306 306 306 307 307 307 308 308 310 310 311 312 312 313 314 313 314 316 317 319 320 317 316 318 321 322 322 322 321 324 326 322 324 329 322 321 327 327 328 330 330 329 328 328 331 333 333 335 335
205 214 223 231 237 243 251 256 260 265 272 277 282 286 288 289 291 292 293 294 295 296 296 297 298 299 299 300 300 301 301 301 302 302 303 303 304 304 305 305 306 306 307 307 308 308 308 310 310 310 311 311 312 313 312 313 315 317 319 319 316 315 317 320 321 321 320 320 323 324 321 324 327 321 321 326 325 327 330 329 329 328 328 331 332 333 334 335
217 228 237 244 250 255 260 265 270 275 279 283 287 289 290 291 292 293 293 294 294 295 296 296 297 298 299 299 299 300 300 301 301 302 303 303 304 304 305 306 306 307 307 307 308 308 308 309 310 309 310 311 312 313 312 312 314 317 321 319 314 313 316 319 320 319 320 320 321 320 320 324 325 320 320 324 324 326 330 330 329 327 327 330 332 333 334 335
231 244 252 256 261 266 271 275 279 282 286 288 290 291 291 292 293 293 293 294 294 295 296 296 297 297 298 299 299 299 300 301 301 302 303 303 304 304 305 306 307 307 307 308 308 308 308 309 309 309 310 313 313 312 312 313 314 318 321 317 311 313 316 318 319 319 320 320 319 317 319 323 323 319 319 322 323 326 330 331 329 326 326 329 331 332 332 334
247 256 261 265 269 274 278 282 285 287 289 290 291 292 292 293 293 293 294 294 294 295 296 296 297 298 299 299 299 300 301 301 302 302 303 303 303 304 305 306 306 307 307 307 307 307 307 308 308 308 310 314 314 312 313 314 315 320 321 315 311 313 316 317 318 320 320 319 316 316 319 321 320 318 318 320 322 326 330 331 328 325 325 327 329 330 330 332
256 263 267 271 275 278 281 285 287 288 290 291 291 292 293 293 294 294 294 295 295 296 297 297 298 298 299 299 300 300 301 301 302 302 303 303 303 304 305 305 306 306 306 306 307 307 307 308 308 308 310 313 313 312 313 314 317 322 321 314 311 313 315 316 318 321 319 316 314 316 318 318 318 316 316 319 322 325 329 331 328 324 324 326 328 328 329 330
262 268 272 276 279 281 283 286 287 288 290 291 291 292 293 294 294 294 295 296 296 296 297 298 298 299 299 299 300 300 301 301 301 301 302 302 303 303 304 305 305 305 306 306 307 307 307 308 308 308 309 312 313 313 314 316 320 324 320 313 311 313 315 316 318 320 317 313 312 314 316 316 315 315 316 319 321 324 328 330 328 324 323 325 326 327 327 328